Montreal Mirabel, Quebec

9:56 PM EST on November 23, 2017 (GMT -0500)
Montreal Mirabel

Weather History for CYMX - February, 2013

Change the Weather History Date:

Saturday, February 2, 2013

  Actual Average Record
Temperature  
Mean Temperature -1 °F -  
Max Temperature 5 °F 21 °F 39 °F (2003)
Min Temperature -7 °F 4 °F -9 °F (2015)
Degree Days  
Heating Degree Days 66    
Moisture  
Dew Point -6 °F    
Average Humidity 76    
Maximum Humidity 85    
Minimum Humidity 66    
Precipitation  
Precipitation 0.00 in - - ()
Sea Level Pressure  
Sea Level Pressure 30.14 in    
Wind  
Wind Speed 4 mph ()    
Max Wind Speed 8 mph    
Max Gust Speed -    
Visibility 8.7 miles    
Events Snow    
Averages and records for this station are not official NWS values.
T = Trace of Precipitation, MM = Missing Value Source: Averaged Metar Reports

Daily Weather History Graph

Daily Weather History Graph

Search for Another Location

Airport or City:

Trip Planner

Search our weather history database for the weather conditions in past years. The results will help you decide how hot, cold, wet, or windy it might be!

Date:

Astronomy

Feb. 02, 2013 Rise Set
Actual Time 7:16 AM EST 5:04 PM EST
Civil Twilight 6:44 AM EST 5:35 PM EST
Nautical Twilight 6:09 AM EST 6:11 PM EST
Astronomical Twilight 5:34 AM EST 6:46 PM EST
Moon No Moon Rise 10:01 AM EST (2/2)
Length of Visible Light 10h 51m
Length of Day
9h 48m
Waning Gibbous, 60% of the Moon is Illuminated
Feb 2
Waning Gibbous
Feb 3
Last Quarter
Feb 10
New
Feb 17
First Quarter
Feb 25
Full

Hourly Weather History & Observations

Time (EST) Temp. Windchill Dew Point Humidity Pressure Visibility Wind Dir Wind Speed Gust Speed Precip Events Conditions
12:00 AM -0.4 °F -10.4 °F -9.4 °F 66% 30.17 in 25.0 mi West 4.6 mph - N/A   Mostly Cloudy
1:00 AM -0.4 °F -8.3 °F -9.4 °F 66% 30.19 in 25.0 mi West 3.5 mph - N/A   Partly Cloudy
2:00 AM -2.2 °F -10.4 °F -11.2 °F 66% 30.21 in 25.0 mi West 3.5 mph - N/A   Partly Cloudy
3:00 AM -4.0 °F - -11.2 °F 71% 30.20 in 25.0 mi Calm Calm - N/A   Mostly Cloudy
4:00 AM -5.8 °F -14.5 °F -11.2 °F 77% 30.20 in 25.0 mi WSW 3.5 mph - N/A   Partly Cloudy
5:00 AM -7.6 °F -16.5 °F -13.0 °F 77% 30.21 in 25.0 mi WNW 3.5 mph - N/A   Partly Cloudy
6:00 AM -7.6 °F - -13.0 °F 77% 30.20 in 25.0 mi Calm Calm - N/A   Mostly Cloudy
7:00 AM -5.8 °F - -11.2 °F 77% 30.21 in 25.0 mi Calm Calm - N/A   Overcast
8:00 AM -5.8 °F - -11.2 °F 77% 30.21 in 45.0 mi Calm Calm - N/A   Overcast
9:00 AM -4.0 °F -14.6 °F -9.4 °F 78% 30.21 in 25.0 mi NE 4.6 mph - N/A   Overcast
9:23 AM -2.2 °F -14.2 °F -9.4 °F 71% 30.20 in 6.0 mi NE 5.8 mph - N/A Snow Light Snow
10:00 AM -0.4 °F -12.0 °F -7.6 °F 72% 30.19 in 3.0 mi NNE 5.8 mph - N/A Snow Light Snow
11:00 AM 1.4 °F -12.5 °F -5.8 °F 72% 30.17 in 3.0 mi NNE 8.1 mph - N/A Snow Light Snow
12:00 PM 3.2 °F -10.3 °F -4.0 °F 72% 30.13 in 10.0 mi ENE 8.1 mph - N/A Snow Light Snow
12:39 PM 3.2 °F -10.3 °F -2.2 °F 78% 30.12 in 2.0 mi NE 8.1 mph - N/A Snow Light Snow
1:00 PM 3.2 °F -10.3 °F -2.2 °F 78% 30.11 in 2.0 mi NE 8.1 mph - N/A Snow Light Snow
2:00 PM 5.0 °F -8.1 °F -2.2 °F 72% 30.09 in 1.5 mi NNE 8.1 mph - N/A Snow Light Snow
2:43 PM 5.0 °F -6.9 °F -0.4 °F 78% 30.09 in 5.0 mi NE 6.9 mph - N/A Snow Light Snow
3:00 PM 5.0 °F -6.9 °F -2.2 °F 72% 30.09 in 12.0 mi NNE 6.9 mph - N/A Snow Light Snow
4:00 PM 5.0 °F -8.1 °F -2.2 °F 72% 30.09 in 5.0 mi ENE 8.1 mph - N/A Snow Light Snow
5:00 PM 3.2 °F -7.8 °F -2.2 °F 78% 30.09 in 6.0 mi NE 5.8 mph - N/A Snow Light Snow
6:00 PM 1.4 °F -6.2 °F -2.2 °F 85% 30.10 in 25.0 mi NNE 3.5 mph - N/A   Mostly Cloudy
7:00 PM -0.4 °F - -4.0 °F 85% 30.10 in 25.0 mi NNE 2.3 mph - N/A   Mostly Cloudy
8:00 PM -0.4 °F - -5.8 °F 78% 30.10 in 25.0 mi NE 2.3 mph - N/A   Overcast
9:00 PM -0.4 °F -8.3 °F -4.0 °F 85% 30.10 in 20.0 mi NNE 3.5 mph - N/A   Mostly Cloudy
10:00 PM -0.4 °F -8.3 °F -4.0 °F 85% 30.10 in 20.0 mi ENE 3.5 mph - N/A   Overcast
10:26 PM -0.4 °F -10.4 °F -4.0 °F 85% 30.09 in 15.0 mi NE 4.6 mph - N/A Snow Light Snow
11:00 PM -2.2 °F -10.4 °F -5.8 °F 85% 30.09 in 20.0 mi NE 3.5 mph - N/A   Scattered Clouds